Dades meteomassalio
Diari Summary for Gener 28, 2018 Units:  Metric    English   Both
« Previous Day
Next Day »
Diari Semanal Mensual Anual Personalitzat
  Maxima: Minima: Mijana:
Temperatura: -17.8 °C -17.4 °C -14.4 °C
Rosada: -17.8 °C -18.2 °C -16.1 °C
Humitat: Humidity % 64 % 82 %
Velocitat del vent: 0 km/h 0 km/h 1.9 km/h
Racha vent: 0 km/h - -
Vent:- - West
Pressio: 0 hPa 35116.2 hPa -
Pluja: 12.7 mm    
Historical Graphs
 
 
Tabular Data for Gener 28, 2018
Time Temperature Dew Point Pressure Wind Wind Speed Wind Gust Humidity Rainfall Rate (Hourly) solar Conditions
-17.8 °C -17.8 °C 0 hPa Calm     Humidity % 0 mm SolarRadiationWatts/m^2 W/m2 Conditions
00:05 -14.4 °C -16.2 °C 35129.8 hPa Calm     80 % 0 mm 0.0 W/m2 CLR
00:10 -14.7 °C -16.4 °C 35129.8 hPa Calm     80 % 0 mm 0.0 W/m2 CLR
00:15 -14.7 °C -16.4 °C 35129.8 hPa Calm     80 % 0 mm 0.0 W/m2 CLR
00:20 -14.7 °C -16.4 °C 35129.8 hPa Calm     80 % 0 mm 0.0 W/m2 CLR
00:25 -14.7 °C -16.4 °C 35116.2 hPa Calm     80 % 0 mm 0.0 W/m2 CLR
00:30 -14.7 °C -16.4 °C 35116.2 hPa Calm     80 % 0 mm 0.0 W/m2 CLR
00:35 -14.7 °C -16.4 °C 35116.2 hPa NW 6 km/h   80 % 0 mm 0.0 W/m2 CLR
00:40 -14.7 °C -16.4 °C 35116.2 hPa Calm     80 % 0 mm 0.0 W/m2 CLR
00:45 -14.7 °C -16.4 °C 35129.8 hPa Calm     80 % 0 mm 0.0 W/m2 CLR
00:50 -14.7 °C -16.3 °C 35129.8 hPa Calm     81 % 0 mm 0.0 W/m2 CLR
00:55 -14.7 °C -16.3 °C 35129.8 hPa Calm     81 % 0 mm 0.0 W/m2 CLR
01:00 -14.4 °C -16.1 °C 35129.8 hPa Calm     81 % 0 mm 0.0 W/m2 CLR
01:05 -14.4 °C -15.9 °C 35129.8 hPa Calm     82 % 0 mm 0.0 W/m2 CLR
01:10 -14.4 °C -15.9 °C 35129.8 hPa Calm     82 % 0 mm 0.0 W/m2 CLR
01:15 -14.4 °C -15.9 °C 35129.8 hPa Calm     82 % 0 mm 0.0 W/m2 CLR
01:20 -14.7 °C -16.3 °C 35129.8 hPa Calm     82 % 7.62 mm 0.0 W/m2 RA
01:25 -14.7 °C -16.2 °C 35129.8 hPa Calm     83 % 7.62 mm 0.0 W/m2 CLR
01:30 -14.7 °C -16.2 °C 35139.9 hPa Calm     83 % 7.62 mm 0.0 W/m2 CLR
01:35 -14.7 °C -16.1 °C 35139.9 hPa Calm     84 % 7.62 mm 0.0 W/m2 CLR
01:40 -14.7 °C -16.2 °C 35139.9 hPa NW 6 km/h 6 km/h 83 % 7.62 mm 0.0 W/m2 CLR
01:45 -14.7 °C -16.1 °C 35139.9 hPa WNW 6 km/h 6 km/h 84 % 7.62 mm 0.0 W/m2 CLR
01:50 -14.7 °C -16.1 °C 35139.9 hPa Calm     84 % 7.62 mm 0.0 W/m2 CLR
01:55 -14.7 °C -16.1 °C 35139.9 hPa Calm     84 % 7.62 mm 0.0 W/m2 CLR
02:00 -15 °C -16.4 °C 35139.9 hPa Calm     84 % 7.62 mm 0.0 W/m2 CLR
02:05 -15 °C -16.4 °C 35139.9 hPa Calm     84 % 7.62 mm 0.0 W/m2 CLR
02:10 -15 °C -16.3 °C 35139.9 hPa Calm     85 % 7.62 mm 0.0 W/m2 CLR
02:15 -15 °C -16.3 °C 35139.9 hPa Calm     85 % 7.62 mm 0.0 W/m2 CLR
02:20 -15 °C -16.2 °C 35139.9 hPa Calm     86 % 7.62 mm 0.0 W/m2 RA
02:25 -15 °C -16.1 °C 35150.1 hPa Calm     87 % 7.62 mm 0.0 W/m2 CLR
02:30 -15 °C -16.1 °C 35150.1 hPa Calm     87 % 7.62 mm 0.0 W/m2 CLR
02:35 -15 °C -16.1 °C 35139.9 hPa Calm     87 % 7.62 mm 0.0 W/m2 CLR
02:40 -15 °C -16.1 °C 35139.9 hPa WNW 9 km/h 9 km/h 87 % 7.62 mm 0.0 W/m2 CLR
02:45 -15 °C -16.1 °C 35139.9 hPa WNW 9 km/h 9 km/h 87 % 7.62 mm 0.0 W/m2 CLR
02:50 -15 °C -16.1 °C 35139.9 hPa WNW 6 km/h 6 km/h 87 % 7.62 mm 0.0 W/m2 CLR
02:55 -15 °C -16.1 °C 35139.9 hPa WNW 11.9 km/h 11.9 km/h 87 % 7.62 mm 0.0 W/m2 CLR
03:00 -15 °C -16.1 °C 35139.9 hPa WNW 11.9 km/h 11.9 km/h 87 % 7.62 mm 0.0 W/m2 CLR
03:05 -15 °C -16 °C 35139.9 hPa WNW 2.6 km/h 2.6 km/h 88 % 7.62 mm 0.0 W/m2 CLR
03:10 -15 °C -16 °C 35139.9 hPa Calm     88 % 7.62 mm 0.0 W/m2 CLR
03:15 -15 °C -16 °C 35139.9 hPa Calm     88 % 7.62 mm 0.0 W/m2 CLR
03:20 -15 °C -16 °C 35139.9 hPa NW 10.3 km/h 10.3 km/h 88 % 0 mm 0.0 W/m2 CLR
03:25 -15 °C -16 °C 35139.9 hPa NW 11.9 km/h 11.9 km/h 88 % 0 mm 0.0 W/m2 CLR
03:30 -15 °C -16.1 °C 35139.9 hPa Calm     87 % 0 mm 0.0 W/m2 CLR
03:35 -15 °C -16.1 °C 35150.1 hPa Calm     87 % 0 mm 0.0 W/m2 CLR
03:40 -15 °C -16 °C 35150.1 hPa Calm     88 % 0 mm 0.0 W/m2 CLR
03:45 -15 °C -16 °C 35139.9 hPa Calm     88 % 0 mm 0.0 W/m2 CLR
03:50 -15 °C -16 °C 35139.9 hPa Calm     88 % 0 mm 0.0 W/m2 CLR
03:55 -15 °C -16 °C 35150.1 hPa Calm     88 % 0 mm 0.0 W/m2 CLR
04:00 -15 °C -16 °C 35139.9 hPa Calm     88 % 0 mm 0.0 W/m2 CLR
04:05 -15 °C -16 °C 35139.9 hPa Calm     88 % 0 mm 0.0 W/m2 CLR
04:10 -15 °C -16 °C 35139.9 hPa Calm     88 % 0 mm 0.0 W/m2 CLR
04:15 -15 °C -16 °C 35139.9 hPa Calm     88 % 0 mm 0.0 W/m2 CLR
04:20 -15 °C -16 °C 35139.9 hPa Calm     88 % 0 mm 0.0 W/m2 CLR
04:25 -15 °C -16 °C 35139.9 hPa Calm     88 % 0 mm 0.0 W/m2 CLR
04:30 -15 °C -16 °C 35139.9 hPa Calm     88 % 0 mm 0.0 W/m2 CLR
04:35 -15 °C -16 °C 35139.9 hPa Calm     88 % 0 mm 0.0 W/m2 CLR
04:40 -15 °C -16 °C 35139.9 hPa West 6 km/h   88 % 0 mm 0.0 W/m2 CLR
04:45 -15 °C -16 °C 35139.9 hPa West 9 km/h   88 % 0 mm 0.0 W/m2 CLR
04:50 -15 °C -16 °C 35139.9 hPa Calm     88 % 0 mm 0.0 W/m2 CLR
04:55 -15 °C -16 °C 35139.9 hPa Calm     88 % 0 mm 0.0 W/m2 CLR
05:00 -15 °C -16 °C 35150.1 hPa Calm     88 % 0 mm 0.0 W/m2 CLR
05:05 -15 °C -16 °C 35150.1 hPa Calm     88 % 0 mm 0.0 W/m2 CLR
05:10 -15.3 °C -16.3 °C 35150.1 hPa Calm     88 % 0 mm 0.0 W/m2 CLR
05:15 -15.3 °C -16.3 °C 35150.1 hPa Calm     88 % 0 mm 0.0 W/m2 CLR
05:20 -15.3 °C -16.3 °C 35150.1 hPa Calm     88 % 0 mm 0.0 W/m2 CLR
05:25 -15.3 °C -16.3 °C 35150.1 hPa Calm     88 % 0 mm 0.0 W/m2 CLR
05:30 -15 °C -16 °C 35150.1 hPa Calm     88 % 0 mm 0.0 W/m2 CLR
05:35 -15 °C -16.1 °C 35150.1 hPa Calm     87 % 0 mm 0.0 W/m2 CLR
05:40 -15 °C -16.1 °C 35150.1 hPa Calm     87 % 0 mm 0.0 W/m2 CLR
05:45 -15 °C -16.1 °C 35150.1 hPa Calm     87 % 0 mm 0.0 W/m2 CLR
05:50 -15 °C -16.1 °C 35150.1 hPa Calm     87 % 0 mm 0.0 W/m2 CLR
05:55 -15 °C -16.1 °C 35163.6 hPa Calm     87 % 0 mm 0.0 W/m2 CLR
06:01 -15 °C -16.1 °C 35150.1 hPa Calm     87 % 0 mm 0.0 W/m2 CLR
06:06 -15 °C -16.1 °C 35150.1 hPa Calm     87 % 0 mm 0.0 W/m2 CLR
06:11 -15 °C -16.1 °C 35150.1 hPa Calm     87 % 0 mm 0.0 W/m2 CLR
06:16 -15 °C -16.1 °C 35150.1 hPa Calm     87 % 0 mm 0.0 W/m2 CLR
06:21 -15 °C -16.1 °C 35163.6 hPa Calm     87 % 0 mm 0.0 W/m2 CLR
06:26 -15 °C -16.2 °C 35163.6 hPa Calm     86 % 0 mm 0.0 W/m2 CLR
06:31 -15 °C -16.2 °C 35163.6 hPa Calm     86 % 0 mm 0.0 W/m2 CLR
06:36 -15 °C -16.2 °C 35163.6 hPa Calm     86 % 0 mm 0.0 W/m2 CLR
06:41 -15 °C -16.2 °C 35173.8 hPa Calm     86 % 0 mm 0.0 W/m2 CLR
06:46 -15 °C -16.2 °C 35173.8 hPa Calm     86 % 0 mm 0.0 W/m2 CLR
06:51 -15 °C -16.2 °C 35173.8 hPa Calm     86 % 0 mm 0.0 W/m2 CLR
06:56 -15 °C -16.2 °C 35173.8 hPa Calm     86 % 0 mm 0.0 W/m2 CLR
07:01 -15 °C -16.2 °C 35173.8 hPa Calm     86 % 0 mm 0.0 W/m2 CLR
07:06 -15 °C -16.2 °C 35173.8 hPa Calm     86 % 0 mm 0.0 W/m2 CLR
07:11 -15 °C -16.2 °C 35173.8 hPa Calm     86 % 0 mm 0.0 W/m2 CLR
07:16 -15 °C -16.2 °C 35173.8 hPa Calm     86 % 0 mm 0.0 W/m2 CLR
07:21 -15 °C -16.2 °C 35187.3 hPa Calm     86 % 0 mm 0.0 W/m2 CLR
07:26 -15 °C -16.2 °C 35187.3 hPa Calm     86 % 0 mm 0.0 W/m2 CLR
07:31 -15 °C -16.2 °C 35187.3 hPa Calm     86 % 0 mm 0.0 W/m2 CLR
07:36 -15 °C -16.2 °C 35197.5 hPa Calm     86 % 0 mm 0.0 W/m2 CLR
07:41 -15 °C -16.1 °C 35197.5 hPa Calm     87 % 0 mm 0.0 W/m2 CLR
07:46 -15 °C -16.1 °C 35187.3 hPa Calm     87 % 0 mm 0.0 W/m2 CLR
07:51 -15 °C -16.1 °C 35197.5 hPa Calm     87 % 0 mm 0.0 W/m2 CLR
07:56 -15 °C -16.2 °C 35197.5 hPa Calm     86 % 0 mm 0.0 W/m2 CLR
08:01 -15 °C -16.2 °C 35197.5 hPa Calm     86 % 0 mm 0.0 W/m2 CLR
08:06 -15 °C -16.2 °C 35197.5 hPa Calm     86 % 0 mm 0.0 W/m2 OVC
08:11 -15 °C -16.2 °C 35197.5 hPa Calm     86 % 0 mm 0.0 W/m2 OVC
08:16 -15 °C -16.2 °C 35207.6 hPa Calm     86 % 0 mm 0.0 W/m2 OVC
08:21 -15 °C -16.1 °C 35207.6 hPa Calm     87 % 0 mm 0.0 W/m2 OVC
08:26 -15 °C -16.1 °C 35207.6 hPa Calm     87 % 0 mm 0.0 W/m2 OVC
08:31 -15 °C -16.1 °C 35207.6 hPa Calm     87 % 0 mm 7.0 W/m2 BKN
08:36 -15 °C -16.1 °C 35207.6 hPa Calm     87 % 0 mm 11.0 W/m2 BKN
08:41 -15 °C -16.1 °C 35221.2 hPa Calm     87 % 0 mm 11.0 W/m2 BKN
08:46 -15 °C -16 °C 35221.2 hPa Calm     88 % 0 mm 11.0 W/m2 BKN
08:51 -15 °C -16 °C 35221.2 hPa Calm     88 % 0 mm 16.0 W/m2 BKN
08:56 -15 °C -16 °C 35231.3 hPa Calm     88 % 0 mm 18.0 W/m2 BKN
09:01 -15 °C -16 °C 35231.3 hPa Calm     88 % 0 mm 18.0 W/m2 BKN
09:06 -15 °C -16 °C 35231.3 hPa Calm     88 % 0 mm 21.0 W/m2 BKN
09:11 -15 °C -16 °C 35231.3 hPa Calm     88 % 0 mm 28.0 W/m2 BKN
09:16 -14.7 °C -15.7 °C 35231.3 hPa Calm     88 % 0 mm 32.0 W/m2 BKN
09:21 -14.7 °C -15.7 °C 35244.9 hPa Calm     88 % 0 mm 30.0 W/m2 BKN
09:26 -14.7 °C -15.7 °C 35244.9 hPa Calm     88 % 0 mm 35.0 W/m2 BKN
09:31 -14.7 °C -15.7 °C 35244.9 hPa Calm     88 % 0 mm 39.0 W/m2 BKN
09:36 -14.7 °C -15.7 °C 35244.9 hPa Calm     88 % 0 mm 39.0 W/m2 BKN
09:41 -14.7 °C -15.7 °C 35244.9 hPa Calm     88 % 0 mm 58.0 W/m2 BKN
09:46 -14.7 °C -15.7 °C 35244.9 hPa Calm     88 % 0 mm 72.0 W/m2 SCT
09:51 -14.7 °C -15.7 °C 35255 hPa Calm     88 % 0 mm 51.0 W/m2 SCT
09:56 -14.4 °C -15.5 °C 35244.9 hPa Calm     87 % 0 mm 62.0 W/m2 SCT
10:01 -14.4 °C -15.5 °C 35255 hPa Calm     87 % 0 mm 62.0 W/m2 SCT
10:02 -14.4 °C -15.5 °C 35255 hPa Calm     87 % 0 mm 62.0 W/m2 SCT
10:07 -14.4 °C -15.5 °C 35255 hPa Calm     87 % 0 mm 56.0 W/m2 FEW
10:12 -14.4 °C -15.6 °C 35255 hPa Calm     86 % 0 mm 77.0 W/m2 FEW
10:17 -14.4 °C -15.6 °C 35255 hPa Calm     86 % 0 mm 60.0 W/m2 FEW
10:22 -14.4 °C -15.7 °C 35255 hPa Calm     85 % 0 mm 69.0 W/m2 SCT
10:27 -14.1 °C -15.4 °C 35255 hPa Calm     85 % 0 mm 130.0 W/m2 FEW
10:32 -14.1 °C -15.4 °C 35255 hPa Calm     84 % 0 mm 109.0 W/m2 CLR
10:42 -14.1 °C -15.6 °C 35255 hPa Calm     83 % 0 mm 79.0 W/m2 FEW
10:47 -14.1 °C -15.4 °C 35255 hPa Calm     84 % 0 mm 137.0 W/m2 CLR
10:52 -13.8 °C -15.2 °C 35265.2 hPa Calm     84 % 0 mm 176.0 W/m2 CLR
10:57 -13.8 °C -15.4 °C 35265.2 hPa Calm     82 % 0 mm 125.0 W/m2 CLR
11:02 -13.8 °C -15.6 °C 35265.2 hPa Calm     80 % 0 mm 128.0 W/m2 CLR
11:07 -13.8 °C -15.7 °C 35278.7 hPa Calm     79 % 0 mm 160.0 W/m2 CLR
11:12 -13.8 °C -15.7 °C 35278.7 hPa Calm     79 % 0 mm 158.0 W/m2 CLR
11:17 -13.4 °C -15.6 °C 35278.7 hPa Calm     77 % 0 mm 135.0 W/m2 CLR
11:22 -13.4 °C -15.4 °C 35278.7 hPa Calm     78 % 0 mm 153.0 W/m2 CLR
11:27 -13.4 °C -15.4 °C 35278.7 hPa NNW 9 km/h 9 km/h 78 % 0 mm 234.0 W/m2 CLR
11:32 -13.2 °C -15.2 °C 35278.7 hPa NNW 6 km/h 6 km/h 77 % 0 mm 144.0 W/m2 CLR
11:37 -13.2 °C -15.2 °C 35278.7 hPa NW 6 km/h 6 km/h 77 % 0 mm 221.0 W/m2 CLR
11:42 -13.2 °C -15.4 °C 35278.7 hPa Calm     76 % 0 mm 225.0 W/m2 CLR
11:47 -13.2 °C -15.4 °C 35278.7 hPa NW 9 km/h 9 km/h 76 % 0 mm 153.0 W/m2 CLR
11:52 -13.2 °C -15.4 °C 35278.7 hPa NW 9 km/h 9 km/h 76 % 0 mm 160.0 W/m2 CLR
11:57 -13.2 °C -15.6 °C 35278.7 hPa North 6 km/h 6 km/h 74 % 0 mm 181.0 W/m2 CLR
12:02 -13.2 °C -15.4 °C 35278.7 hPa North 3.1 km/h 3.1 km/h 76 % 0 mm 160.0 W/m2 CLR
12:07 -13.2 °C -15.4 °C 35278.7 hPa NNW 9 km/h 9 km/h 76 % 0 mm 151.0 W/m2 CLR
12:12 -13.2 °C -15.4 °C 35278.7 hPa Calm     76 % 0 mm 155.0 W/m2 CLR
12:17 -13.2 °C -15.4 °C 35278.7 hPa NNW 6 km/h 6 km/h 76 % 0 mm 156.0 W/m2 CLR
12:22 -13.2 °C -15.4 °C 35278.7 hPa Calm     75 % 0 mm 193.0 W/m2 CLR
12:27 -13.2 °C -15.4 °C 35278.7 hPa NNW 9 km/h 9 km/h 75 % 0 mm 221.0 W/m2 CLR
12:32 -12.8 °C -15.1 °C 35278.7 hPa NNW 7.7 km/h 7.7 km/h 76 % 0 mm 684.0 W/m2 CLR
12:37 -12.8 °C -15.3 °C 35265.2 hPa NNW 9 km/h 9 km/h 74 % 0 mm 299.0 W/m2 CLR
12:42 -12.8 °C -15.2 °C 35265.2 hPa NW 6 km/h 6 km/h 75 % 0 mm 489.0 W/m2 CLR
12:47 -12.8 °C -15.2 °C 35265.2 hPa WNW 9 km/h 9 km/h 75 % 0 mm 236.0 W/m2 CLR
12:52 -12.8 °C -15.4 °C 35265.2 hPa WNW 6 km/h   73 % 0 mm 206.0 W/m2 CLR
12:57 -12.8 °C -15.4 °C 35265.2 hPa West 11.9 km/h 11.9 km/h 73 % 0 mm 262.0 W/m2 CLR
13:02 -12.8 °C -15.4 °C 35265.2 hPa West 15 km/h 15 km/h 73 % 0 mm 294.0 W/m2 CLR
13:07 -12.6 °C -15.1 °C 35265.2 hPa WNW 9 km/h 9 km/h 73 % 0 mm 309.0 W/m2 CLR
13:12 -12.6 °C -15.2 °C 35265.2 hPa WNW 9 km/h 9 km/h 72 % 0 mm 214.0 W/m2 CLR
13:17 -12.6 °C -15.1 °C 35255 hPa NW 9 km/h 9 km/h 73 % 0 mm 265.0 W/m2 CLR
13:22 -12.6 °C -14.9 °C 35255 hPa NW 3.1 km/h   74 % 0 mm 237.0 W/m2 CLR
13:27 -12.6 °C -14.9 °C 35255 hPa NNW 9 km/h 9 km/h 74 % 0 mm 202.0 W/m2 CLR
13:32 -12.6 °C -14.9 °C 35255 hPa North 3.1 km/h 3.1 km/h 74 % 0 mm 232.0 W/m2 CLR
13:37 -12.6 °C -14.9 °C 35255 hPa NNW 9 km/h 9 km/h 74 % 0 mm 216.0 W/m2 CLR
13:42 -12.6 °C -14.9 °C 35255 hPa Calm     74 % 0 mm 239.0 W/m2 CLR
13:47 -12.2 °C -14.8 °C 35255 hPa NW 9 km/h 9 km/h 73 % 0 mm 306.0 W/m2 CLR
13:53 -12.6 °C -15.2 °C 35244.9 hPa Calm   1 km/h 72 % 0 mm 223.0 W/m2 CLR
13:58 -12.2 °C -14.8 °C 35244.9 hPa Calm     73 % 0 mm 431.0 W/m2 CLR
14:03 -12.2 °C -14.9 °C 35244.9 hPa North 9 km/h   72 % 0 mm 221.0 W/m2 CLR
14:08 -12.2 °C -14.9 °C 35244.9 hPa ESE 9 km/h 9 km/h 72 % 0 mm 260.0 W/m2 CLR
14:13 -12.2 °C -15 °C 35244.9 hPa NNW 3.1 km/h 3.1 km/h 71 % 0 mm 232.0 W/m2 CLR
14:18 -12.2 °C -14.9 °C 35244.9 hPa NW 9 km/h 9 km/h 72 % 0 mm 172.0 W/m2 CLR
14:23 -12.2 °C -14.8 °C 35244.9 hPa NNW 6 km/h 6 km/h 73 % 0 mm 160.0 W/m2 CLR
14:28 -12.6 °C -15.2 °C 35244.9 hPa Calm     72 % 0 mm 146.0 W/m2 CLR
14:33 -12.6 °C -15.2 °C 35244.9 hPa NNW 6 km/h 6 km/h 72 % 0 mm 149.0 W/m2 CLR
14:38 -12.6 °C -15.1 °C 35244.9 hPa Calm     73 % 0 mm 186.0 W/m2 CLR
14:43 -12.2 °C -14.9 °C 35231.3 hPa Calm     72 % 0 mm 339.0 W/m2 CLR
14:48 -11.9 °C -14.7 °C 35231.3 hPa NNW 2.6 km/h   71 % 0 mm 550.0 W/m2 CLR
14:53 -11.6 °C -14.3 °C 35231.3 hPa NNW 9 km/h 9 km/h 72 % 0 mm 522.0 W/m2 CLR
14:58 -11.6 °C -14.6 °C 35231.3 hPa NW 9 km/h 9 km/h 70 % 0 mm 415.0 W/m2 CLR
15:03 -11.6 °C -14.6 °C 35231.3 hPa NNW 6 km/h 6 km/h 70 % 0 mm 434.0 W/m2 CLR
15:08 -11.3 °C -14.5 °C 35231.3 hPa Calm     68 % 0 mm 483.0 W/m2 CLR
15:13 -11.3 °C -14.7 °C 35231.3 hPa Calm     66 % 0 mm 461.0 W/m2 CLR
15:18 -11.3 °C -14.6 °C 35231.3 hPa NW 9 km/h 9 km/h 67 % 0 mm 394.0 W/m2 CLR
15:23 -11.3 °C -14.6 °C 35231.3 hPa Calm     67 % 0 mm 383.0 W/m2 CLR
15:28 -11.3 °C -14.6 °C 35231.3 hPa Calm     67 % 0 mm 369.0 W/m2 CLR
15:33 -11.3 °C -14.9 °C 35231.3 hPa Calm     64 % 0 mm 357.0 W/m2 CLR
15:38 -11.3 °C -14.8 °C 35231.3 hPa Calm     65 % 0 mm 346.0 W/m2 CLR
15:43 -11 °C -14.6 °C 35231.3 hPa Calm     65 % 0 mm 343.0 W/m2 CLR
15:48 -11 °C -14.6 °C 35231.3 hPa Calm     65 % 0 mm 329.0 W/m2 CLR
15:53 -11 °C -14.4 °C 35231.3 hPa Calm     66 % 0 mm 309.0 W/m2 CLR
15:58 -11 °C -14.6 °C 35221.2 hPa NNW 10.3 km/h 10.3 km/h 65 % 0 mm 299.0 W/m2 CLR
16:03 -11 °C -14.4 °C 35221.2 hPa NNW 6 km/h 6 km/h 66 % 0 mm 288.0 W/m2 CLR
16:08 -11 °C -14.4 °C 35221.2 hPa Calm     66 % 0 mm 278.0 W/m2 CLR
16:13 -11 °C -14.4 °C 35221.2 hPa NNW 6 km/h 6 km/h 66 % 0 mm 265.0 W/m2 CLR
16:18 -11 °C -14.4 °C 35221.2 hPa NW 6 km/h 6 km/h 66 % 0 mm 260.0 W/m2 CLR
16:23 -11 °C -14.4 °C 35221.2 hPa Calm     66 % 0 mm 190.0 W/m2 CLR
16:28 -11.3 °C -14.7 °C 35221.2 hPa ESE 15 km/h 15 km/h 66 % 0 mm 151.0 W/m2 CLR
16:33 -11.6 °C -14.9 °C 35221.2 hPa ESE 11.9 km/h 11.9 km/h 67 % 0 mm 221.0 W/m2 CLR
16:38 -11.6 °C -14.8 °C 35221.2 hPa ESE 15 km/h 15 km/h 68 % 0 mm 214.0 W/m2 CLR
16:43 -11.6 °C -14.8 °C 35221.2 hPa ESE 9 km/h 9 km/h 68 % 0 mm 193.0 W/m2 CLR
16:48 -11.9 °C -15.1 °C 35221.2 hPa ESE 17.9 km/h 17.9 km/h 68 % 0 mm 169.0 W/m2 CLR
16:53 -11.9 °C -14.9 °C 35221.2 hPa ESE 12.9 km/h 12.9 km/h 69 % 0 mm 148.0 W/m2 CLR
16:58 -11.9 °C -14.9 °C 35231.3 hPa ESE 15 km/h 15 km/h 69 % 0 mm 134.0 W/m2 CLR
17:03 -12.2 °C -15.2 °C 35231.3 hPa ESE 6 km/h 6 km/h 69 % 0 mm 118.0 W/m2 CLR
17:08 -12.2 °C -15.1 °C 35231.3 hPa North 9 km/h 9 km/h 70 % 0 mm 104.0 W/m2 CLR
17:13 -12.2 °C -15.1 °C 35231.3 hPa ESE 9 km/h 9 km/h 70 % 0 mm 86.0 W/m2 CLR
17:18 -12.6 °C -15.4 °C 35231.3 hPa ESE 6 km/h 6 km/h 70 % 0 mm 67.0 W/m2 FEW
17:23 -12.6 °C -15.4 °C 35231.3 hPa Calm     70 % 0 mm 63.0 W/m2 SCT
17:28 -12.6 °C -15.3 °C 35231.3 hPa Calm     71 % 0 mm 49.0 W/m2 SCT
17:33 -12.8 °C -15.6 °C 35244.9 hPa Calm     71 % 0 mm 40.0 W/m2 BKN
17:38 -12.8 °C -15.7 °C 35244.9 hPa Calm     70 % 0 mm 30.0 W/m2 BKN
17:43 -13.2 °C -15.9 °C 35244.9 hPa Calm     71 % 0 mm 23.0 W/m2 BKN
17:48 -13.2 °C -16 °C 35244.9 hPa Calm     70 % 0 mm 19.0 W/m2 BKN
17:53 -13.4 °C -16.2 °C 35244.9 hPa Calm     71 % 0 mm 14.0 W/m2 BKN
17:58 -13.4 °C -16.1 °C 35244.9 hPa Calm     72 % 0 mm 9.0 W/m2 BKN
18:03 -13.8 °C -16.3 °C 35244.9 hPa Calm     73 % 0 mm 7.0 W/m2 BKN
18:08 -14.1 °C -16.5 °C 35244.9 hPa Calm     74 % 0 mm 5.0 W/m2 OVC
18:13 -14.1 °C -16.3 °C 35244.9 hPa Calm     75 % 0 mm 0.0 W/m2 OVC
18:18 -14.4 °C -16.6 °C 35255 hPa Calm     76 % 0 mm 0.0 W/m2 OVC
18:23 -14.4 °C -16.6 °C 35255 hPa Calm     76 % 0 mm 0.0 W/m2 CLR
18:28 -14.7 °C -16.8 °C 35255 hPa Calm     77 % 0 mm 0.0 W/m2 CLR
18:33 -14.7 °C -16.8 °C 35255 hPa Calm     77 % 0 mm 0.0 W/m2 CLR
18:38 -14.7 °C -16.7 °C 35255 hPa Calm     78 % 0 mm 0.0 W/m2 CLR
18:43 -14.7 °C -16.6 °C 35255 hPa Calm     79 % 0 mm 0.0 W/m2 CLR
18:48 -14.7 °C -16.4 °C 35255 hPa Calm     80 % 0 mm 0.0 W/m2 CLR
18:53 -14.7 °C -16.4 °C 35255 hPa Calm     80 % 0 mm 0.0 W/m2 CLR
18:58 -14.7 °C -16.3 °C 35255 hPa Calm     81 % 0 mm 0.0 W/m2 CLR
19:03 -15 °C -16.6 °C 35265.2 hPa Calm     82 % 0 mm 0.0 W/m2 CLR
19:08 -15 °C -16.5 °C 35265.2 hPa Calm     83 % 0 mm 0.0 W/m2 CLR
19:13 -15 °C -16.5 °C 35265.2 hPa Calm     83 % 0 mm 0.0 W/m2 CLR
19:18 -15 °C -16.4 °C 35265.2 hPa Calm     84 % 0 mm 0.0 W/m2 CLR
19:24 -15.3 °C -16.6 °C 35265.2 hPa Calm     85 % 0 mm 0.0 W/m2 CLR
19:29 -15.3 °C -16.6 °C 35265.2 hPa Calm     85 % 0 mm 0.0 W/m2 CLR
19:34 -15.6 °C -16.9 °C 35265.2 hPa Calm     85 % 0 mm 0.0 W/m2 CLR
19:39 -15.6 °C -16.8 °C 35265.2 hPa Calm     86 % 0 mm 0.0 W/m2 CLR
19:44 -15.6 °C -16.8 °C 35265.2 hPa Calm     86 % 0 mm 0.0 W/m2 CLR
19:49 -15.9 °C -17.1 °C 35265.2 hPa Calm     86 % 0 mm 0.0 W/m2 CLR
19:54 -15.9 °C -17.1 °C 35265.2 hPa Calm     86 % 0 mm 0.0 W/m2 CLR
19:59 -15.9 °C -17 °C 35278.7 hPa Calm     87 % 0 mm 0.0 W/m2 CLR
20:04 -15.9 °C -17 °C 35265.2 hPa Calm     87 % 0 mm 0.0 W/m2 CLR
20:09 -16.2 °C -17.2 °C 35265.2 hPa Calm     88 % 0 mm 0.0 W/m2 CLR
20:14 -16.2 °C -17.2 °C 35265.2 hPa Calm     88 % 0 mm 0.0 W/m2 CLR
20:19 -16.2 °C -17.2 °C 35265.2 hPa Calm     88 % 0 mm 0.0 W/m2 CLR
20:24 -16.2 °C -17.2 °C 35278.7 hPa Calm     88 % 0 mm 0.0 W/m2 CLR
20:29 -16.2 °C -17.1 °C 35265.2 hPa Calm     89 % 0 mm 0.0 W/m2 CLR
20:34 -16.2 °C -17.1 °C 35265.2 hPa Calm     89 % 0 mm 0.0 W/m2 CLR
20:39 -16.2 °C -17.1 °C 35265.2 hPa Calm     89 % 0 mm 0.0 W/m2 CLR
20:44 -16.2 °C -17.1 °C 35265.2 hPa Calm     89 % 0 mm 0.0 W/m2 CLR
20:49 -16.2 °C -17.1 °C 35265.2 hPa Calm     89 % 0 mm 0.0 W/m2 CLR
20:54 -16.2 °C -17.1 °C 35265.2 hPa Calm     89 % 0 mm 0.0 W/m2 CLR
20:59 -16.2 °C -17.1 °C 35265.2 hPa Calm     89 % 0 mm 0.0 W/m2 CLR
21:04 -16.6 °C -17.3 °C 35278.7 hPa Calm     90 % 0 mm 0.0 W/m2 CLR
21:09 -16.6 °C -17.3 °C 35265.2 hPa Calm     90 % 0 mm 0.0 W/m2 CLR
21:14 -16.6 °C -17.3 °C 35278.7 hPa Calm     90 % 0 mm 0.0 W/m2 CLR
21:19 -16.6 °C -17.3 °C 35278.7 hPa Calm     90 % 0 mm 0.0 W/m2 CLR
21:24 -16.6 °C -17.3 °C 35278.7 hPa Calm     90 % 0 mm 0.0 W/m2 CLR
21:29 -16.6 °C -17.3 °C 35278.7 hPa Calm     90 % 0 mm 0.0 W/m2 CLR
21:34 -16.6 °C -17.3 °C 35278.7 hPa Calm     90 % 0 mm 0.0 W/m2 CLR
21:39 -16.6 °C -17.3 °C 35278.7 hPa Calm     90 % 0 mm 0.0 W/m2 CLR
21:44 -16.6 °C -17.3 °C 35278.7 hPa Calm     90 % 0 mm 0.0 W/m2 CLR
21:49 -16.6 °C -17.3 °C 35278.7 hPa Calm     90 % 0 mm 0.0 W/m2 CLR
21:54 -16.6 °C -17.3 °C 35278.7 hPa Calm     90 % 0 mm 0.0 W/m2 CLR
21:59 -16.8 °C -17.7 °C 35278.7 hPa Calm     90 % 0 mm 0.0 W/m2 CLR
22:04 -16.6 °C -17.3 °C 35278.7 hPa Calm     90 % 0 mm 0.0 W/m2 CLR
22:09 -16.8 °C -17.7 °C 35278.7 hPa Calm     90 % 0 mm 0.0 W/m2 CLR
22:14 -16.8 °C -17.7 °C 35278.7 hPa Calm     90 % 0 mm 0.0 W/m2 CLR
22:19 -16.8 °C -17.7 °C 35278.7 hPa Calm     90 % 0 mm 0.0 W/m2 CLR
22:24 -16.8 °C -17.7 °C 35278.7 hPa Calm     90 % 0 mm 0.0 W/m2 CLR
22:29 -16.8 °C -17.6 °C 35278.7 hPa Calm     91 % 0 mm 0.0 W/m2 CLR
22:34 -16.8 °C -17.7 °C 35278.7 hPa Calm     90 % 0 mm 0.0 W/m2 CLR
22:39 -16.8 °C -17.7 °C 35278.7 hPa Calm     90 % 0 mm 0.0 W/m2 CLR
22:44 -16.8 °C -17.6 °C 35278.7 hPa Calm     91 % 0 mm 0.0 W/m2 CLR
22:49 -17.2 °C -17.9 °C 35278.7 hPa Calm     91 % 0 mm 0.0 W/m2 CLR
22:54 -17.2 °C -17.9 °C 35278.7 hPa Calm     91 % 0 mm 0.0 W/m2 CLR
22:59 -16.8 °C -17.6 °C 35265.2 hPa Calm     91 % 0 mm 0.0 W/m2 CLR
23:04 -17.2 °C -17.9 °C 35265.2 hPa Calm     91 % 0 mm 0.0 W/m2 CLR
23:09 -17.2 °C -17.9 °C 35265.2 hPa Calm     91 % 0 mm 0.0 W/m2 CLR
23:14 -17.2 °C -17.9 °C 35265.2 hPa Calm     91 % 0 mm 0.0 W/m2 CLR
23:19 -17.2 °C -17.9 °C 35278.7 hPa Calm     91 % 0 mm 0.0 W/m2 CLR
23:24 -17.4 °C -18.2 °C 35278.7 hPa Calm     91 % 0 mm 0.0 W/m2 CLR
23:29 -17.4 °C -18.2 °C 35278.7 hPa Calm     91 % 0 mm 0.0 W/m2 CLR
23:35 -17.4 °C -18.2 °C 35278.7 hPa Calm     91 % 0 mm 0.0 W/m2 CLR
23:40 -17.4 °C -18.2 °C 35278.7 hPa Calm     91 % 0 mm 0.0 W/m2 CLR
23:45 -17.4 °C -18.2 °C 35278.7 hPa Calm     91 % 0 mm 0.0 W/m2 CLR
23:50 -17.4 °C -18.1 °C 35278.7 hPa Calm     92 % 0 mm 0.0 W/m2 CLR
23:55 -17.2 °C -17.8 °C 35278.7 hPa Calm     92 % 0 mm 0.0 W/m2 CLR
Lo Temps de Massalio
Compliments of Weather Underground - 1.25 mb